Time,TemperatureF,DewpointF,PressureIn,WindDirection,WindDirectionDegrees,WindSpeedMPH,WindSpeedGustMPH,Humidity,HourlyPrecipIn,Conditions,Clouds,dailyrainin,SoftwareType,DateUTC
2013-01-12 00:02:00,57.0,42.4,29.34,SSW,198,4.0,7.0,38,0.00,,,0.00,meteohub,2013-01-12 06:02:00,
2013-01-12 00:07:00,57.2,42.4,29.34,SSW,203,3.0,7.0,38,0.00,,,0.00,meteohub,2013-01-12 06:07:00,
2013-01-12 00:12:00,57.2,42.4,29.34,SSW,193,3.0,8.0,38,0.00,,,0.00,meteohub,2013-01-12 06:12:00,
2013-01-12 00:17:00,57.4,42.4,29.34,SSW,195,6.0,8.0,38,0.00,,,0.00,meteohub,2013-01-12 06:17:00,
2013-01-12 00:22:00,57.6,42.4,29.31,SSW,202,4.0,8.0,38,0.00,,,0.00,meteohub,2013-01-12 06:22:00,
2013-01-12 00:27:00,57.6,42.3,29.31,SSW,204,6.0,8.0,38,0.00,,,0.00,meteohub,2013-01-12 06:27:00,
2013-01-12 00:32:00,57.7,42.3,29.31,SSW,193,0.0,8.0,38,0.00,,,0.00,meteohub,2013-01-12 06:32:00,
2013-01-12 00:37:00,57.7,42.1,29.34,SSW,206,4.0,10.0,38,0.00,,,0.00,meteohub,2013-01-12 06:37:00,
2013-01-12 00:43:00,57.6,42.1,29.34,SSW,199,3.0,10.0,38,0.00,,,0.00,meteohub,2013-01-12 06:43:00,
2013-01-12 00:48:00,57.6,42.3,29.34,SW,214,4.0,8.0,38,0.00,,,0.00,meteohub,2013-01-12 06:48:00,
2013-01-12 00:53:00,57.6,42.3,29.34,SSW,213,3.0,8.0,38,0.00,,,0.00,meteohub,2013-01-12 06:53:00,
2013-01-12 00:58:00,57.6,42.3,29.34,SSW,205,3.0,6.0,38,0.00,,,0.00,meteohub,2013-01-12 06:58:00,
2013-01-12 01:03:00,57.7,42.1,29.34,South,190,5.0,6.0,38,0.00,,,0.00,meteohub,2013-01-12 07:03:00,
2013-01-12 01:08:00,57.9,42.1,29.34,SSW,208,4.0,8.0,38,0.00,,,0.00,meteohub,2013-01-12 07:08:00,
2013-01-12 01:13:00,58.1,42.1,29.34,SW,220,5.0,8.0,38,0.00,,,0.00,meteohub,2013-01-12 07:13:00,
2013-01-12 01:18:00,58.3,42.1,29.34,SSW,211,3.0,8.0,38,0.00,,,0.00,meteohub,2013-01-12 07:18:00,
2013-01-12 01:23:00,58.3,42.1,29.34,East,97,4.0,8.0,38,0.00,,,0.00,meteohub,2013-01-12 07:23:00,
2013-01-12 01:28:00,58.3,41.4,29.34,SSW,202,3.0,8.0,37,0.00,,,0.00,meteohub,2013-01-12 07:28:00,
2013-01-12 01:33:00,58.1,41.5,29.34,SW,222,0.0,8.0,37,0.00,,,0.00,meteohub,2013-01-12 07:33:00,
2013-01-12 01:38:00,58.1,41.4,29.34,SSW,194,5.0,8.0,37,0.00,,,0.00,meteohub,2013-01-12 07:38:00,
2013-01-12 01:43:00,58.1,41.4,29.34,South,180,3.0,8.0,37,0.00,,,0.00,meteohub,2013-01-12 07:43:00,
2013-01-12 01:48:00,58.1,41.2,29.34,SW,214,4.0,6.0,37,0.00,,,0.00,meteohub,2013-01-12 07:48:00,
2013-01-12 01:53:00,58.1,41.2,29.34,SSW,194,3.0,6.0,37,0.00,,,0.00,meteohub,2013-01-12 07:53:00,
2013-01-12 01:58:00,58.1,41.2,29.34,SSW,197,4.0,6.0,37,0.00,,,0.00,meteohub,2013-01-12 07:58:00,
2013-01-12 02:04:00,58.1,41.0,29.34,South,182,6.0,6.0,37,0.00,,,0.00,meteohub,2013-01-12 08:04:00,
2013-01-12 02:09:00,58.3,41.0,29.36,SSW,203,3.0,6.0,37,0.00,,,0.00,meteohub,2013-01-12 08:09:00,
2013-01-12 02:14:00,58.3,41.0,29.36,SSE,165,2.0,6.0,37,0.00,,,0.00,meteohub,2013-01-12 08:14:00,
2013-01-12 02:19:00,58.3,41.0,29.36,SSW,206,0.0,6.0,37,0.00,,,0.00,meteohub,2013-01-12 08:19:00,
2013-01-12 02:24:00,58.1,41.0,29.36,SSW,206,4.0,6.0,37,0.00,,,0.00,meteohub,2013-01-12 08:24:00,
2013-01-12 02:29:00,58.1,41.0,29.36,SSW,200,4.0,6.0,37,0.00,,,0.00,meteohub,2013-01-12 08:29:00,
2013-01-12 02:34:00,58.1,41.0,29.36,SSW,196,3.0,8.0,37,0.00,,,0.00,meteohub,2013-01-12 08:34:00,
2013-01-12 02:39:00,58.1,41.0,29.36,SSW,197,3.0,8.0,37,0.00,,,0.00,meteohub,2013-01-12 08:39:00,
2013-01-12 02:44:00,58.1,41.0,29.36,SSW,200,3.0,8.0,37,0.00,,,0.00,meteohub,2013-01-12 08:44:00,
2013-01-12 02:49:00,58.1,41.0,29.36,SW,224,3.0,5.0,37,0.00,,,0.00,meteohub,2013-01-12 08:49:00,
2013-01-12 02:57:00,58.1,41.0,29.34,SW,227,3.0,5.0,37,0.00,,,0.00,meteohub,2013-01-12 08:57:00,
2013-01-12 03:02:00,58.1,41.0,29.34,SW,224,4.0,6.0,37,0.00,,,0.00,meteohub,2013-01-12 09:02:00,
2013-01-12 03:07:00,58.1,41.0,29.36,South,189,5.0,6.0,37,0.00,,,0.00,meteohub,2013-01-12 09:07:00,
2013-01-12 03:13:00,58.1,41.0,29.36,South,185,2.0,6.0,37,0.00,,,0.00,meteohub,2013-01-12 09:13:00,
2013-01-12 03:18:00,58.1,41.0,29.36,South,190,4.0,6.0,37,0.00,,,0.00,meteohub,2013-01-12 09:18:00,
2013-01-12 03:23:00,58.1,40.8,29.34,SSW,204,3.0,6.0,37,0.00,,,0.00,meteohub,2013-01-12 09:23:00,
2013-01-12 03:28:00,58.3,40.8,29.34,SW,230,3.0,6.0,37,0.00,,,0.00,meteohub,2013-01-12 09:28:00,
2013-01-12 03:33:00,58.1,40.8,29.34,SSW,203,4.0,6.0,37,0.00,,,0.00,meteohub,2013-01-12 09:33:00,
2013-01-12 03:38:00,58.3,40.8,29.36,SSW,207,4.0,6.0,37,0.00,,,0.00,meteohub,2013-01-12 09:38:00,
2013-01-12 03:43:00,58.3,41.4,29.36,SSW,205,3.0,6.0,38,0.00,,,0.00,meteohub,2013-01-12 09:43:00,
2013-01-12 03:48:00,58.5,41.4,29.36,SSW,202,4.0,5.0,38,0.00,,,0.00,meteohub,2013-01-12 09:48:00,
2013-01-12 03:53:00,58.5,41.4,29.36,SSW,193,0.0,5.0,38,0.00,,,0.00,meteohub,2013-01-12 09:53:00,
2013-01-12 03:59:00,58.5,41.2,29.36,SSW,208,4.0,6.0,38,0.00,,,0.00,meteohub,2013-01-12 09:59:00,
2013-01-12 04:04:00,58.5,41.2,29.36,South,189,4.0,6.0,38,0.00,,,0.00,meteohub,2013-01-12 10:04:00,
2013-01-12 04:09:00,58.5,41.2,29.36,South,186,3.0,6.0,38,0.00,,,0.00,meteohub,2013-01-12 10:09:00,
2013-01-12 04:14:00,58.5,41.0,29.36,SSW,203,4.0,6.0,38,0.00,,,0.00,meteohub,2013-01-12 10:14:00,
2013-01-12 04:19:00,58.5,41.0,29.36,SSW,200,4.0,6.0,38,0.00,,,0.00,meteohub,2013-01-12 10:19:00,
2013-01-12 04:24:00,58.5,41.0,29.36,SSW,205,4.0,6.0,38,0.00,,,0.00,meteohub,2013-01-12 10:24:00,
2013-01-12 04:29:00,58.5,41.0,29.36,SSW,204,6.0,6.0,38,0.00,,,0.00,meteohub,2013-01-12 10:29:00,
2013-01-12 04:34:00,58.6,40.8,29.36,South,190,4.0,8.0,38,0.00,,,0.00,meteohub,2013-01-12 10:34:00,
2013-01-12 04:39:00,58.6,40.8,29.36,SSW,202,5.0,8.0,38,0.00,,,0.00,meteohub,2013-01-12 10:39:00,
2013-01-12 04:44:00,58.5,40.8,29.36,SSW,209,4.0,8.0,38,0.00,,,0.00,meteohub,2013-01-12 10:44:00,
2013-01-12 04:49:00,58.3,40.6,29.36,SSW,193,5.0,8.0,38,0.00,,,0.00,meteohub,2013-01-12 10:49:00,
2013-01-12 04:54:00,58.3,40.6,29.36,SW,224,3.0,6.0,38,0.00,,,0.00,meteohub,2013-01-12 10:54:00,
2013-01-12 04:59:00,58.3,40.6,29.36,SW,234,3.0,6.0,38,0.00,,,0.00,meteohub,2013-01-12 10:59:00,
2013-01-12 05:04:00,58.1,40.6,29.36,South,180,5.0,6.0,38,0.00,,,0.00,meteohub,2013-01-12 11:04:00,
2013-01-12 05:09:00,58.1,40.6,29.36,SSW,197,4.0,8.0,38,0.00,,,0.00,meteohub,2013-01-12 11:09:00,
2013-01-12 05:15:00,58.1,40.5,29.36,SW,214,6.0,8.0,38,0.00,,,0.00,meteohub,2013-01-12 11:15:00,
2013-01-12 05:20:00,57.9,40.5,29.36,South,180,5.0,8.0,38,0.00,,,0.00,meteohub,2013-01-12 11:20:00,
2013-01-12 05:25:00,57.9,40.5,29.36,SSW,209,3.0,7.0,38,0.00,,,0.00,meteohub,2013-01-12 11:25:00,
2013-01-12 05:30:00,57.7,40.5,29.36,SSW,210,4.0,6.0,38,0.00,,,0.00,meteohub,2013-01-12 11:30:00,
2013-01-12 05:35:00,57.7,40.5,29.36,SSW,206,4.0,6.0,38,0.00,,,0.00,meteohub,2013-01-12 11:35:00,
2013-01-12 05:40:00,57.6,40.3,29.36,SSW,204,4.0,6.0,38,0.00,,,0.00,meteohub,2013-01-12 11:40:00,
2013-01-12 05:45:00,57.6,40.3,29.36,SSW,201,3.0,6.0,38,0.00,,,0.00,meteohub,2013-01-12 11:45:00,
2013-01-12 05:50:00,57.4,40.3,29.36,SSW,206,4.0,6.0,38,0.00,,,0.00,meteohub,2013-01-12 11:50:00,
2013-01-12 05:55:00,57.4,40.3,29.36,SSW,203,5.0,6.0,38,0.00,,,0.00,meteohub,2013-01-12 11:55:00,
2013-01-12 06:00:00,57.6,40.3,29.36,SSW,197,4.0,6.0,38,0.00,,,0.00,meteohub,2013-01-12 12:00:00,
2013-01-12 06:05:00,57.6,40.3,29.36,WSW,247,0.0,6.0,38,0.00,,,0.00,meteohub,2013-01-12 12:05:00,
2013-01-12 06:10:00,57.6,40.1,29.36,SSE,168,2.0,6.0,38,0.00,,,0.00,meteohub,2013-01-12 12:10:00,
2013-01-12 06:15:00,57.6,40.1,29.36,SSW,192,0.0,6.0,38,0.00,,,0.00,meteohub,2013-01-12 12:15:00,
2013-01-12 06:20:00,57.4,40.1,29.36,SSW,196,5.0,6.0,38,0.00,,,0.00,meteohub,2013-01-12 12:20:00,
2013-01-12 06:25:00,57.2,40.1,29.36,South,188,3.0,6.0,38,0.00,,,0.00,meteohub,2013-01-12 12:25:00,
2013-01-12 06:31:00,57.2,40.1,29.36,SW,218,2.0,6.0,38,0.00,,,0.00,meteohub,2013-01-12 12:31:00,
2013-01-12 06:36:00,57.2,39.9,29.36,SSW,208,3.0,6.0,38,0.00,,,0.00,meteohub,2013-01-12 12:36:00,
2013-01-12 06:41:00,57.2,39.9,29.39,SSW,211,0.0,6.0,38,0.00,,,0.00,meteohub,2013-01-12 12:41:00,
2013-01-12 06:46:00,57.0,39.9,29.39,WSW,246,4.0,5.0,38,0.00,,,0.00,meteohub,2013-01-12 12:46:00,
2013-01-12 06:51:00,57.0,39.9,29.39,South,184,2.0,5.0,38,0.00,,,0.00,meteohub,2013-01-12 12:51:00,
2013-01-12 06:56:00,56.8,39.9,29.39,South,190,3.0,5.0,38,0.00,,,0.00,meteohub,2013-01-12 12:56:00,
2013-01-12 07:01:00,56.8,39.9,29.39,South,172,3.0,5.0,38,0.00,,,0.00,meteohub,2013-01-12 13:01:00,
2013-01-12 07:06:00,56.7,39.9,29.39,South,179,0.0,4.0,38,0.00,,,0.00,meteohub,2013-01-12 13:06:00,
2013-01-12 07:11:00,56.5,39.9,29.39,SSW,198,0.0,4.0,38,0.00,,,0.00,meteohub,2013-01-12 13:11:00,
2013-01-12 07:16:00,56.3,39.9,29.39,SSW,198,0.0,4.0,38,0.00,,,0.00,meteohub,2013-01-12 13:16:00,
2013-01-12 07:21:00,56.1,39.9,29.42,South,187,0.0,3.0,38,0.00,,,0.00,meteohub,2013-01-12 13:21:00,
2013-01-12 07:26:00,56.1,39.9,29.42,SSW,208,0.0,3.0,38,0.00,,,0.00,meteohub,2013-01-12 13:26:00,
2013-01-12 07:31:00,55.9,39.9,29.42,SSW,208,0.0,2.0,38,0.00,,,0.00,meteohub,2013-01-12 13:31:00,
2013-01-12 07:37:00,55.8,39.9,29.42,SSW,209,0.0,0.0,38,0.00,,,0.00,meteohub,2013-01-12 13:37:00,
2013-01-12 07:42:00,55.4,39.9,29.42,SSW,208,0.0,0.0,38,0.00,,,0.00,meteohub,2013-01-12 13:42:00,
2013-01-12 07:47:00,54.9,39.9,29.42,SSW,209,0.0,0.0,38,0.00,,,0.00,meteohub,2013-01-12 13:47:00,
2013-01-12 07:52:00,54.5,39.9,29.42,SSW,208,0.0,0.0,38,0.00,,,0.00,meteohub,2013-01-12 13:52:00,
2013-01-12 07:57:00,54.3,39.9,29.42,SSW,208,0.0,0.0,38,0.00,,,0.00,meteohub,2013-01-12 13:57:00,
2013-01-12 08:02:00,54.0,39.9,29.42,SSW,209,0.0,0.0,38,0.00,,,0.00,meteohub,2013-01-12 14:02:00,
2013-01-12 08:07:00,53.4,39.9,29.42,SSW,209,0.0,0.0,38,0.00,,,0.00,meteohub,2013-01-12 14:07:00,
2013-01-12 08:12:00,53.2,39.9,29.42,SSW,208,0.0,0.0,38,0.00,,,0.00,meteohub,2013-01-12 14:12:00,
2013-01-12 08:17:00,53.1,39.9,29.42,SSW,208,0.0,0.0,38,0.00,,,0.00,meteohub,2013-01-12 14:17:00,
2013-01-12 08:22:00,52.9,39.9,29.42,SSW,208,0.0,0.0,38,0.00,,,0.00,meteohub,2013-01-12 14:22:00,
2013-01-12 08:27:00,52.9,39.9,29.42,SSW,208,0.0,0.0,38,0.00,,,0.00,meteohub,2013-01-12 14:27:00,
2013-01-12 08:32:00,53.1,39.9,29.42,SSW,208,0.0,0.0,38,0.00,,,0.00,meteohub,2013-01-12 14:32:00,
2013-01-12 08:37:00,53.2,39.9,29.42,SSW,209,0.0,0.0,38,0.00,,,0.00,meteohub,2013-01-12 14:37:00,
2013-01-12 08:42:00,53.1,39.9,29.42,SSW,208,0.0,0.0,38,0.00,,,0.00,meteohub,2013-01-12 14:42:00,
2013-01-12 08:47:00,53.1,39.9,29.42,SSW,209,0.0,0.0,38,0.00,,,0.00,meteohub,2013-01-12 14:47:00,
2013-01-12 08:53:00,53.1,39.9,29.42,SSW,208,0.0,0.0,38,0.00,,,0.00,meteohub,2013-01-12 14:53:00,
2013-01-12 08:58:00,53.2,40.3,29.42,SSW,208,0.0,0.0,38,0.00,,,0.00,meteohub,2013-01-12 14:58:00,
2013-01-12 09:03:00,53.8,40.8,29.42,SSW,208,0.0,0.0,38,0.00,,,0.00,meteohub,2013-01-12 15:03:00,
2013-01-12 09:08:00,54.5,41.2,29.42,SSW,208,0.0,0.0,38,0.00,,,0.00,meteohub,2013-01-12 15:08:00,
2013-01-12 09:13:00,55.4,41.2,29.42,SSW,208,0.0,0.0,38,0.00,,,0.00,meteohub,2013-01-12 15:13:00,
2013-01-12 09:18:00,55.8,41.2,29.42,SSW,208,0.0,0.0,38,0.00,,,0.00,meteohub,2013-01-12 15:18:00,
2013-01-12 09:23:00,56.5,41.0,29.42,SSW,208,0.0,0.0,38,0.00,,,0.00,meteohub,2013-01-12 15:23:00,
2013-01-12 09:28:00,57.2,41.0,29.42,SSW,207,0.0,0.0,38,0.00,,,0.00,meteohub,2013-01-12 15:28:00,
2013-01-12 09:33:00,57.7,41.0,29.42,SSW,207,0.0,0.0,38,0.00,,,0.00,meteohub,2013-01-12 15:33:00,
2013-01-12 09:38:00,58.3,41.4,29.45,WSW,255,0.0,0.0,38,0.00,,,0.00,meteohub,2013-01-12 15:38:00,
2013-01-12 09:43:00,58.8,41.4,29.45,SW,226,0.0,0.0,38,0.00,,,0.00,meteohub,2013-01-12 15:43:00,
2013-01-12 09:48:00,59.4,41.4,29.45,SSW,192,4.0,4.0,38,0.00,,,0.00,meteohub,2013-01-12 15:48:00,
2013-01-12 09:53:00,59.5,41.2,29.45,South,183,3.0,5.0,38,0.00,,,0.00,meteohub,2013-01-12 15:53:00,
2013-01-12 09:58:00,59.7,41.2,29.45,SW,217,2.0,5.0,38,0.00,,,0.00,meteohub,2013-01-12 15:58:00,
2013-01-12 10:03:00,60.1,41.2,29.45,SSW,211,3.0,5.0,38,0.00,,,0.00,meteohub,2013-01-12 16:03:00,
2013-01-12 10:08:00,60.3,41.0,29.42,SSW,195,0.0,5.0,38,0.00,,,0.00,meteohub,2013-01-12 16:08:00,
2013-01-12 10:13:00,60.1,41.0,29.42,South,191,3.0,4.0,38,0.00,,,0.00,meteohub,2013-01-12 16:13:00,
2013-01-12 10:18:00,59.7,41.0,29.42,West,259,3.0,4.0,38,0.00,,,0.00,meteohub,2013-01-12 16:18:00,
2013-01-12 10:24:00,59.9,41.0,29.45,SSW,207,0.0,4.0,38,0.00,,,0.00,meteohub,2013-01-12 16:24:00,
2013-01-12 10:29:00,60.6,41.0,29.45,SSW,205,0.0,4.0,38,0.00,,,0.00,meteohub,2013-01-12 16:29:00,
2013-01-12 10:34:00,61.2,41.0,29.45,SW,215,0.0,4.0,38,0.00,,,0.00,meteohub,2013-01-12 16:34:00,
2013-01-12 10:39:00,61.3,41.0,29.45,NNW,332,5.0,5.0,38,0.00,,,0.00,meteohub,2013-01-12 16:39:00,
2013-01-12 10:44:00,61.0,41.0,29.45,WNW,291,4.0,5.0,38,0.00,,,0.00,meteohub,2013-01-12 16:44:00,
2013-01-12 10:49:00,60.1,41.0,29.45,North,2,6.0,6.0,38,0.00,,,0.00,meteohub,2013-01-12 16:49:00,
2013-01-12 10:54:00,59.2,40.8,29.45,WNW,301,3.0,7.0,38,0.00,,,0.00,meteohub,2013-01-12 16:54:00,
2013-01-12 10:59:00,58.8,40.8,29.45,North,10,4.0,8.0,38,0.00,,,0.00,meteohub,2013-01-12 16:59:00,
2013-01-12 11:04:00,58.5,40.8,29.45,North,357,4.0,8.0,38,0.00,,,0.00,meteohub,2013-01-12 17:04:00,
2013-01-12 11:09:00,58.5,40.8,29.42,North,357,4.0,6.0,38,0.00,,,0.00,meteohub,2013-01-12 17:09:00,
2013-01-12 11:14:00,58.6,40.8,29.42,North,7,4.0,8.0,38,0.00,,,0.00,meteohub,2013-01-12 17:14:00,
2013-01-12 11:19:00,58.8,41.0,29.42,NW,310,5.0,8.0,38,0.00,,,0.00,meteohub,2013-01-12 17:19:00,
2013-01-12 11:24:00,59.0,41.0,29.42,North,0,4.0,8.0,38,0.00,,,0.00,meteohub,2013-01-12 17:24:00,
2013-01-12 11:29:00,58.8,41.0,29.42,North,357,6.0,8.0,38,0.00,,,0.00,meteohub,2013-01-12 17:29:00,
2013-01-12 11:34:00,58.5,41.9,29.42,North,357,8.0,8.0,39,0.00,,,0.00,meteohub,2013-01-12 17:34:00,
2013-01-12 11:39:00,58.5,41.5,29.42,North,353,5.0,8.0,38,0.00,,,0.00,meteohub,2013-01-12 17:39:00,
2013-01-12 11:44:00,58.5,41.5,29.42,NNW,344,4.0,8.0,38,0.00,,,0.00,meteohub,2013-01-12 17:44:00,
2013-01-12 11:50:00,58.3,41.5,29.42,NNE,21,4.0,8.0,38,0.00,,,0.00,meteohub,2013-01-12 17:50:00,
2013-01-12 11:55:00,58.3,41.5,29.42,North,3,5.0,8.0,38,0.00,,,0.00,meteohub,2013-01-12 17:55:00,
2013-01-12 12:00:00,58.3,41.5,29.42,NNE,23,4.0,8.0,38,0.00,,,0.00,meteohub,2013-01-12 18:00:00,
2013-01-12 12:05:00,58.3,41.5,29.42,ENE,64,6.0,8.0,38,0.00,,,0.00,meteohub,2013-01-12 18:05:00,
2013-01-12 12:10:00,58.5,41.5,29.39,NNE,13,4.0,9.0,38,0.00,,,0.00,meteohub,2013-01-12 18:10:00,
2013-01-12 12:15:00,58.5,41.7,29.39,NNW,344,4.0,9.0,38,0.00,,,0.00,meteohub,2013-01-12 18:15:00,
2013-01-12 12:20:00,58.6,41.9,29.39,NNE,18,7.0,9.0,38,0.00,,,0.00,meteohub,2013-01-12 18:20:00,
2013-01-12 12:25:00,58.6,41.9,29.39,North,353,4.0,8.0,38,0.00,,,0.00,meteohub,2013-01-12 18:25:00,
2013-01-12 12:30:00,58.6,41.9,29.39,North,0,5.0,8.0,38,0.00,,,0.00,meteohub,2013-01-12 18:30:00,
2013-01-12 12:35:00,58.6,41.7,29.39,NNE,23,6.0,8.0,38,0.00,,,0.00,meteohub,2013-01-12 18:35:00,
2013-01-12 12:40:00,58.6,41.7,29.39,NNW,346,6.0,8.0,38,0.00,,,0.00,meteohub,2013-01-12 18:40:00,
2013-01-12 12:45:00,58.1,41.7,29.39,North,6,3.0,8.0,38,0.00,,,0.00,meteohub,2013-01-12 18:45:00,
2013-01-12 12:50:00,57.9,41.7,29.39,North,357,3.0,7.0,38,0.00,,,0.00,meteohub,2013-01-12 18:50:00,
2013-01-12 12:55:00,57.6,41.7,29.39,North,6,8.0,8.0,38,0.00,,,0.00,meteohub,2013-01-12 18:55:00,
2013-01-12 13:00:00,57.0,41.7,29.39,NW,307,4.0,8.0,38,0.00,,,0.00,meteohub,2013-01-12 19:00:00,
2013-01-12 13:05:00,56.7,41.7,29.39,North,357,6.0,8.0,38,0.00,,,0.00,meteohub,2013-01-12 19:05:00,
2013-01-12 13:10:00,56.3,41.9,29.42,NNW,333,8.0,8.0,38,0.00,,,0.00,meteohub,2013-01-12 19:10:00,
2013-01-12 13:16:00,56.1,42.1,29.42,NNE,25,5.0,8.0,38,0.00,,,0.00,meteohub,2013-01-12 19:16:00,
2013-01-12 13:21:00,55.9,41.9,29.42,North,2,6.0,8.0,38,0.00,,,0.00,meteohub,2013-01-12 19:21:00,
2013-01-12 13:26:00,55.8,41.9,29.42,North,353,3.0,8.0,38,0.00,,,0.00,meteohub,2013-01-12 19:26:00,
2013-01-12 13:31:00,55.4,41.9,29.42,North,7,5.0,8.0,38,0.00,,,0.00,meteohub,2013-01-12 19:31:00,
2013-01-12 13:36:00,55.2,41.7,29.42,North,353,5.0,7.0,38,0.00,,,0.00,meteohub,2013-01-12 19:36:00,
2013-01-12 13:41:00,54.9,41.7,29.39,NNE,21,4.0,8.0,38,0.00,,,0.00,meteohub,2013-01-12 19:41:00,
2013-01-12 13:46:00,54.7,41.7,29.39,NE,42,6.0,8.0,38,0.00,,,0.00,meteohub,2013-01-12 19:46:00,
2013-01-12 13:51:00,54.3,41.7,29.39,North,10,5.0,8.0,38,0.00,,,0.00,meteohub,2013-01-12 19:51:00,
2013-01-12 13:56:00,53.4,41.7,29.39,North,0,6.0,8.0,38,0.00,,,0.00,meteohub,2013-01-12 19:56:00,
2013-01-12 14:01:00,52.3,41.7,29.39,North,357,6.0,10.0,38,0.00,,,0.00,meteohub,2013-01-12 20:01:00,
2013-01-12 14:06:00,51.3,42.4,29.36,East,89,4.0,10.0,39,0.00,,,0.00,meteohub,2013-01-12 20:06:00,
2013-01-12 14:12:00,50.5,42.4,29.36,North,353,5.0,10.0,39,0.00,,,0.00,meteohub,2013-01-12 20:12:00,
2013-01-12 14:17:00,50.0,42.6,29.36,North,0,4.0,9.0,39,0.00,,,0.00,meteohub,2013-01-12 20:17:00,
2013-01-12 14:22:00,49.6,41.9,29.39,North,0,8.0,8.0,38,0.00,,,0.00,meteohub,2013-01-12 20:22:00,
2013-01-12 14:27:00,49.1,41.9,29.39,NNW,342,4.0,9.0,38,0.00,,,0.00,meteohub,2013-01-12 20:27:00,
2013-01-12 14:32:00,48.7,41.9,29.39,NNE,19,5.0,9.0,38,0.00,,,0.00,meteohub,2013-01-12 20:32:00,
2013-01-12 14:37:00,48.6,41.7,29.39,North,1,6.0,9.0,38,0.00,,,0.00,meteohub,2013-01-12 20:37:00,
2013-01-12 14:42:00,48.4,42.4,29.39,North,357,4.0,9.0,39,0.00,,,0.00,meteohub,2013-01-12 20:42:00,
2013-01-12 14:47:00,48.2,42.4,29.39,NNE,21,4.0,9.0,39,0.00,,,0.00,meteohub,2013-01-12 20:47:00,
2013-01-12 14:52:00,48.0,42.4,29.39,North,357,3.0,8.0,39,0.00,,,0.00,meteohub,2013-01-12 20:52:00,
2013-01-12 14:57:00,48.0,41.5,29.39,NNE,20,4.0,8.0,38,0.00,,,0.00,meteohub,2013-01-12 20:57:00,
2013-01-12 15:02:00,47.8,41.5,29.39,NW,312,0.0,6.0,38,0.00,,,0.00,meteohub,2013-01-12 21:02:00,
2013-01-12 15:07:00,47.8,42.3,29.39,NNE,31,5.0,5.0,39,0.00,,,0.00,meteohub,2013-01-12 21:07:00,
2013-01-12 15:12:00,47.8,42.4,29.39,North,3,5.0,6.0,39,0.00,,,0.00,meteohub,2013-01-12 21:12:00,
2013-01-12 15:17:00,47.7,42.4,29.39,NNE,29,4.0,6.0,39,0.00,,,0.00,meteohub,2013-01-12 21:17:00,
2013-01-12 15:22:00,47.5,41.7,29.39,NNE,24,4.0,8.0,38,0.00,,,0.00,meteohub,2013-01-12 21:22:00,
2013-01-12 15:28:00,47.3,41.5,29.39,North,357,5.0,8.0,38,0.00,,,0.00,meteohub,2013-01-12 21:28:00,
2013-01-12 15:33:00,47.1,41.5,29.39,NNE,16,6.0,8.0,38,0.04,,,0.04,meteohub,2013-01-12 21:33:00,
2013-01-12 15:38:00,46.8,41.5,29.36,NNE,16,6.0,10.0,38,0.04,,,0.04,meteohub,2013-01-12 21:38:00,
2013-01-12 15:43:00,46.6,41.5,29.36,North,0,6.0,10.0,38,0.04,,,0.04,meteohub,2013-01-12 21:43:00,
2013-01-12 15:48:00,46.2,41.4,29.36,NNE,28,5.0,10.0,38,0.04,,,0.04,meteohub,2013-01-12 21:48:00,
2013-01-12 15:53:00,45.9,41.4,29.36,NNE,33,4.0,9.0,38,0.04,,,0.04,meteohub,2013-01-12 21:53:00,
2013-01-12 15:58:00,45.5,41.4,29.36,North,11,5.0,9.0,38,0.04,,,0.04,meteohub,2013-01-12 21:58:00,
2013-01-12 16:03:00,45.3,41.4,29.36,North,8,4.0,10.0,38,0.04,,,0.04,meteohub,2013-01-12 22:03:00,
2013-01-12 16:08:00,45.1,41.4,29.39,NNE,14,9.0,10.0,38,0.04,,,0.04,meteohub,2013-01-12 22:08:00,
2013-01-12 16:13:00,45.0,41.5,29.39,North,6,8.0,10.0,38,0.04,,,0.04,meteohub,2013-01-12 22:13:00,
2013-01-12 16:18:00,44.8,41.7,29.39,North,0,7.0,11.0,38,0.04,,,0.04,meteohub,2013-01-12 22:18:00,
2013-01-12 16:23:00,44.4,41.7,29.36,North,2,6.0,11.0,38,0.04,,,0.04,meteohub,2013-01-12 22:23:00,
2013-01-12 16:28:00,44.1,41.7,29.36,NE,34,6.0,11.0,38,0.04,,,0.04,meteohub,2013-01-12 22:28:00,
2013-01-12 16:34:00,43.3,41.7,29.36,North,357,6.0,11.0,38,0.00,,,0.04,meteohub,2013-01-12 22:34:00,
2013-01-12 16:39:00,43.0,41.7,29.36,North,353,5.0,9.0,38,0.04,,,0.08,meteohub,2013-01-12 22:39:00,
2013-01-12 16:44:00,42.6,41.5,29.36,NNE,15,8.0,9.0,38,0.04,,,0.08,meteohub,2013-01-12 22:44:00,
2013-01-12 16:49:00,42.3,41.5,29.36,North,0,6.0,11.0,38,0.04,,,0.08,meteohub,2013-01-12 22:49:00,
2013-01-12 16:54:00,42.1,41.5,29.36,North,11,6.0,11.0,38,0.08,,,0.12,meteohub,2013-01-12 22:54:00,
2013-01-12 16:59:00,41.9,41.5,29.36,North,0,4.0,9.0,38,0.08,,,0.12,meteohub,2013-01-12 22:59:00,
2013-01-12 17:04:00,41.5,41.4,29.36,NNE,28,8.0,11.0,38,0.13,,,0.17,meteohub,2013-01-12 23:04:00,
2013-01-12 17:09:00,41.4,41.4,29.34,North,357,6.0,11.0,38,0.17,,,0.17,meteohub,2013-01-12 23:09:00,
2013-01-12 17:14:00,41.2,41.4,29.34,North,349,7.0,11.0,38,0.21,,,0.25,meteohub,2013-01-12 23:14:00,
2013-01-12 17:19:00,41.2,41.5,29.34,NNE,29,9.0,11.0,38,0.21,,,0.25,meteohub,2013-01-12 23:19:00,
2013-01-12 17:25:00,41.2,41.7,29.34,North,11,6.0,11.0,38,0.21,,,0.25,meteohub,2013-01-12 23:25:00,
2013-01-12 17:30:00,41.2,41.7,29.34,North,357,6.0,11.0,38,0.25,,,0.29,meteohub,2013-01-12 23:30:00,
2013-01-12 17:35:00,41.2,41.5,29.34,North,10,4.0,11.0,38,0.20,,,0.29,meteohub,2013-01-12 23:35:00,
2013-01-12 17:40:00,41.0,41.0,29.34,NNE,14,6.0,10.0,37,0.25,,,0.33,meteohub,2013-01-12 23:40:00,
2013-01-12 17:45:00,41.0,40.8,29.34,NE,51,5.0,10.0,37,0.25,,,0.33,meteohub,2013-01-12 23:45:00,
2013-01-12 17:50:00,40.8,40.8,29.34,North,353,6.0,10.0,37,0.21,,,0.33,meteohub,2013-01-12 23:50:00,
2013-01-12 17:55:00,40.8,40.8,29.34,North,357,6.0,11.0,37,0.25,,,0.37,meteohub,2013-01-12 23:55:00,
2013-01-12 18:00:00,40.8,41.4,29.34,NNW,327,2.0,11.0,38,0.20,,,0.37,meteohub,2013-01-13 00:00:00,
2013-01-12 18:06:00,40.8,41.4,29.34,North,11,5.0,11.0,38,0.17,,,0.37,meteohub,2013-01-13 00:06:00,
2013-01-12 18:11:00,40.8,41.2,29.34,NE,37,4.0,8.0,38,0.12,,,0.37,meteohub,2013-01-13 00:11:00,
2013-01-12 18:16:00,40.8,40.8,29.34,North,353,5.0,8.0,37,0.17,,,0.41,meteohub,2013-01-13 00:16:00,
2013-01-12 18:21:00,40.8,40.8,29.34,North,357,4.0,9.0,37,0.17,,,0.41,meteohub,2013-01-13 00:21:00,
2013-01-12 18:26:00,40.6,41.4,29.31,North,7,6.0,9.0,38,0.17,,,0.45,meteohub,2013-01-13 00:26:00,
2013-01-12 18:31:00,40.6,40.5,29.31,NW,318,4.0,9.0,37,0.17,,,0.45,meteohub,2013-01-13 00:31:00,
2013-01-12 18:36:00,40.6,40.5,29.31,WNW,300,6.0,8.0,37,0.12,,,0.45,meteohub,2013-01-13 00:36:00,
2013-01-12 18:41:00,40.6,40.5,29.34,North,353,6.0,8.0,37,0.12,,,0.45,meteohub,2013-01-13 00:41:00,
2013-01-12 18:47:00,40.6,40.3,29.34,NNW,340,6.0,9.0,37,0.12,,,0.45,meteohub,2013-01-13 00:47:00,
2013-01-12 18:52:00,40.5,40.3,29.34,NW,305,4.0,9.0,37,0.17,,,0.50,meteohub,2013-01-13 00:52:00,
2013-01-12 18:57:00,40.5,40.1,29.34,NNE,26,6.0,8.0,37,0.13,,,0.50,meteohub,2013-01-13 00:57:00,
2013-01-12 19:02:00,40.3,40.1,29.34,WSW,251,4.0,8.0,37,0.13,,,0.50,meteohub,2013-01-13 01:02:00,
2013-01-12 19:07:00,39.9,40.1,29.36,North,9,5.0,10.0,37,0.17,,,0.54,meteohub,2013-01-13 01:07:00,
2013-01-12 19:12:00,39.7,40.3,29.36,NNE,24,5.0,10.0,37,0.17,,,0.58,meteohub,2013-01-13 01:12:00,
2013-01-12 19:17:00,39.4,41.0,29.36,NNW,333,5.0,9.0,38,0.17,,,0.58,meteohub,2013-01-13 01:17:00,
2013-01-12 19:22:00,39.4,40.3,29.36,NNE,30,4.0,10.0,37,0.21,,,0.62,meteohub,2013-01-13 01:22:00,
2013-01-12 19:27:00,39.4,40.3,29.36,NW,308,6.0,10.0,37,0.21,,,0.66,meteohub,2013-01-13 01:27:00,
2013-01-12 19:33:00,39.2,40.3,29.36,North,6,6.0,10.0,37,0.21,,,0.66,meteohub,2013-01-13 01:33:00,
2013-01-12 19:38:00,38.8,40.1,29.36,NNW,346,5.0,9.0,37,0.25,,,0.70,meteohub,2013-01-13 01:38:00,
2013-01-12 19:43:00,38.7,40.3,29.36,NNE,18,5.0,10.0,37,0.29,,,0.74,meteohub,2013-01-13 01:43:00,
2013-01-12 19:48:00,38.5,40.6,29.36,WNW,299,3.0,11.0,37,0.25,,,0.74,meteohub,2013-01-13 01:48:00,
2013-01-12 19:53:00,38.3,40.8,29.39,NW,304,6.0,11.0,37,0.29,,,0.79,meteohub,2013-01-13 01:53:00,
2013-01-12 19:58:00,38.1,40.8,29.39,NNW,337,4.0,11.0,37,0.33,,,0.83,meteohub,2013-01-13 01:58:00,
2013-01-12 20:03:00,37.8,40.6,29.39,WNW,297,4.0,10.0,37,0.29,,,0.83,meteohub,2013-01-13 02:03:00,
2013-01-12 20:08:00,37.6,40.5,29.36,NNW,335,3.0,11.0,37,0.33,,,0.87,meteohub,2013-01-13 02:08:00,
2013-01-12 20:13:00,37.4,40.5,29.36,WNW,296,8.0,11.0,37,0.33,,,0.91,meteohub,2013-01-13 02:13:00,
2013-01-12 20:18:00,36.9,40.5,29.36,North,350,6.0,11.0,37,0.33,,,0.95,meteohub,2013-01-13 02:18:00,
2013-01-12 20:24:00,36.3,41.0,29.36,NNE,19,6.0,11.0,37,0.37,,,0.99,meteohub,2013-01-13 02:24:00,
2013-01-12 20:29:00,36.0,41.0,29.36,NW,315,6.0,10.0,37,0.33,,,0.99,meteohub,2013-01-13 02:29:00,
2013-01-12 20:34:00,35.6,41.0,29.36,North,0,6.0,15.0,37,0.33,,,1.04,meteohub,2013-01-13 02:34:00,
2013-01-12 20:39:00,35.4,41.0,29.36,North,349,5.0,15.0,37,0.37,,,1.07,meteohub,2013-01-13 02:39:00,
2013-01-12 20:44:00,35.2,41.0,29.36,North,0,6.0,15.0,37,0.33,,,1.07,meteohub,2013-01-13 02:44:00,
2013-01-12 20:49:00,35.1,41.0,29.36,North,7,11.0,13.0,37,0.33,,,1.12,meteohub,2013-01-13 02:49:00,
2013-01-12 20:54:00,34.7,41.0,29.36,North,10,11.0,13.0,37,0.37,,,1.16,meteohub,2013-01-13 02:54:00,
2013-01-12 20:59:00,34.5,41.2,29.36,North,9,10.0,15.0,37,0.33,,,1.16,meteohub,2013-01-13 02:59:00,
2013-01-12 21:04:00,34.3,41.2,29.36,North,11,7.0,15.0,37,0.29,,,1.16,meteohub,2013-01-13 03:04:00,
2013-01-12 21:09:00,34.3,41.0,29.36,South,173,8.0,15.0,37,0.29,,,1.20,meteohub,2013-01-13 03:09:00,
2013-01-12 21:14:00,34.3,41.0,29.36,NNW,337,5.0,15.0,37,0.29,,,1.20,meteohub,2013-01-13 03:14:00,
2013-01-12 21:19:00,34.2,41.0,29.36,NNE,12,8.0,15.0,37,0.25,,,1.20,meteohub,2013-01-13 03:19:00,
2013-01-12 21:24:00,34.2,41.0,29.34,North,7,8.0,15.0,37,0.21,,,1.20,meteohub,2013-01-13 03:24:00,
2013-01-12 21:30:00,34.2,41.0,29.34,NE,35,8.0,14.0,37,0.17,,,1.20,meteohub,2013-01-13 03:30:00,
2013-01-12 21:35:00,34.0,41.0,29.34,North,357,8.0,11.0,37,0.17,,,1.24,meteohub,2013-01-13 03:35:00,
2013-01-12 21:40:00,34.2,41.0,29.36,NNE,16,8.0,11.0,37,0.12,,,1.24,meteohub,2013-01-13 03:40:00,
2013-01-12 21:45:00,34.0,41.0,29.36,North,0,11.0,13.0,37,0.08,,,1.24,meteohub,2013-01-13 03:45:00,
2013-01-12 21:50:00,34.0,40.8,29.36,North,5,8.0,13.0,37,0.08,,,1.24,meteohub,2013-01-13 03:50:00,
2013-01-12 21:55:00,34.0,40.8,29.36,NNW,337,6.0,11.0,37,0.13,,,1.28,meteohub,2013-01-13 03:55:00,
2013-01-12 22:00:00,33.8,40.8,29.36,North,4,8.0,14.0,37,0.08,,,1.28,meteohub,2013-01-13 04:00:00,
2013-01-12 22:05:00,33.8,41.0,29.36,NNE,23,6.0,14.0,37,0.08,,,1.28,meteohub,2013-01-13 04:05:00,
2013-01-12 22:10:00,33.8,41.0,29.36,North,1,5.0,13.0,37,0.08,,,1.28,meteohub,2013-01-13 04:10:00,
2013-01-12 22:15:00,33.8,41.0,29.36,NNW,345,10.0,13.0,37,0.08,,,1.28,meteohub,2013-01-13 04:15:00,
2013-01-12 22:20:00,33.6,41.0,29.36,North,7,8.0,13.0,37,0.08,,,1.28,meteohub,2013-01-13 04:20:00,
2013-01-12 22:25:00,33.6,40.8,29.39,NNW,345,8.0,11.0,37,0.04,,,1.28,meteohub,2013-01-13 04:25:00,
2013-01-12 22:30:00,33.4,40.8,29.39,NW,317,7.0,11.0,37,0.04,,,1.28,meteohub,2013-01-13 04:30:00,
2013-01-12 22:36:00,33.3,41.0,29.39,NNW,345,6.0,13.0,37,0.04,,,1.28,meteohub,2013-01-13 04:36:00,
2013-01-12 22:41:00,33.3,41.2,29.42,NNE,15,6.0,13.0,37,0.04,,,1.28,meteohub,2013-01-13 04:41:00,
2013-01-12 22:46:00,33.4,41.0,29.42,North,357,5.0,13.0,37,0.04,,,1.28,meteohub,2013-01-13 04:46:00,
2013-01-12 22:51:00,33.4,40.3,29.42,NW,315,6.0,11.0,36,0.00,,,1.28,meteohub,2013-01-13 04:51:00,
2013-01-12 22:56:00,33.6,40.1,29.42,NNE,22,10.0,11.0,36,0.00,,,1.28,meteohub,2013-01-13 04:56:00,
2013-01-12 23:02:00,33.4,40.1,29.42,NNW,346,4.0,11.0,36,0.00,,,1.28,meteohub,2013-01-13 05:02:00,
2013-01-12 23:03:00,33.4,40.1,29.42,NNW,335,4.0,11.0,36,0.00,,,1.28,meteohub,2013-01-13 05:03:00,
2013-01-12 23:04:00,33.3,40.6,29.42,NNE,26,6.0,11.0,37,0.00,,,1.28,meteohub,2013-01-13 05:04:00,
2013-01-12 23:05:00,33.3,40.6,29.42,North,353,10.0,11.0,37,0.00,,,1.28,meteohub,2013-01-13 05:05:00,
2013-01-12 23:10:00,33.3,40.1,29.42,North,8,3.0,11.0,36,0.00,,,1.28,meteohub,2013-01-13 05:10:00,
2013-01-12 23:15:00,33.3,40.1,29.42,NNW,327,4.0,11.0,36,0.00,,,1.28,meteohub,2013-01-13 05:15:00,
2013-01-12 23:20:00,33.3,40.1,29.42,North,4,0.0,11.0,36,0.00,,,1.28,meteohub,2013-01-13 05:20:00,
2013-01-12 23:25:00,33.1,39.9,29.42,NE,39,0.0,9.0,36,0.00,,,1.28,meteohub,2013-01-13 05:25:00,
2013-01-12 23:31:00,33.1,39.7,29.42,NE,41,0.0,9.0,36,0.00,,,1.28,meteohub,2013-01-13 05:31:00,
2013-01-12 23:36:00,33.1,40.3,29.42,North,5,0.0,10.0,36,0.00,,,1.28,meteohub,2013-01-13 05:36:00,
2013-01-12 23:41:00,32.9,40.3,29.42,North,5,0.0,10.0,36,0.00,,,1.28,meteohub,2013-01-13 05:41:00,
2013-01-12 23:46:00,32.9,40.3,29.42,NNW,343,0.0,10.0,36,0.00,,,1.28,meteohub,2013-01-13 05:46:00,
2013-01-12 23:51:00,32.9,40.1,29.42,NNW,333,0.0,0.0,36,0.00,,,1.28,meteohub,2013-01-13 05:51:00,
2013-01-12 23:56:00,32.9,39.9,29.42,NW,304,0.0,0.0,36,0.00,,,1.28,meteohub,2013-01-13 05:56:00,